DateTimeUTC,F1_A11,F1_S11,BsB_S11,BsG_S11,BsR_S11,BbsB_S11,BbsG_S11,BbsR_S11,BaB_A11,BaG_A11,BaR_A11,Tu_S11,T_S11,Uu_S11,U_S11,P_S11,T1_A11
2021-02-09T09:00:00Z,00000200,21000000,,,,,,,0000.00,0000.30,-000.30,15.8,23.3,,00.0,0653.7,30.9
2021-02-09T09:01:00Z,00000200,21000000,,,,,,,-000.24,-000.43,-000.32,15.8,23.3,,00.0,0653.8,30.9
2021-02-09T09:02:00Z,00000200,21000000,,,,,,,-000.30,-000.03,-000.02,15.7,23.3,,00.0,0653.8,30.9
2021-02-09T09:03:00Z,00000200,61000000,,,,,,,-000.71,-000.74,-000.87,15.7,23.3,,00.0,0653.8,30.9
2021-02-09T09:04:00Z,00000200,41000000,0000.39,0000.23,0000.17,-000.21,-000.05,0000.18,0000.01,-000.18,0000.26,15.8,23.0,,00.0,0654.7,30.9
2021-02-09T09:05:00Z,00000200,01000000,0000.60,0000.39,0000.29,-000.08,-000.16,0000.08,0000.54,0000.08,0000.27,15.8,23.0,,00.0,0654.8,30.9
2021-02-09T09:06:00Z,00000200,01000000,0000.27,0000.47,0000.30,-000.29,0000.11,0000.35,0000.50,0000.87,0000.58,15.8,23.0,,00.0,0654.8,30.9
2021-02-09T09:07:00Z,00000200,01000000,0000.72,0000.18,0000.19,-000.16,-000.18,0000.01,0000.56,0000.14,0000.03,15.9,23.0,,00.0,0654.8,30.9
2021-02-09T09:08:00Z,00000200,01000000,0000.18,0000.41,0000.38,-000.01,0000.12,0000.21,0000.10,0000.38,0000.24,15.9,23.0,,00.0,0654.9,30.9
2021-02-09T09:09:00Z,00000200,01000000,0000.89,0000.36,0000.30,0000.40,-000.00,0000.07,0000.01,0000.30,0000.05,16.0,23.0,,00.0,0655.0,30.9
2021-02-09T09:10:00Z,00000200,01000000,0000.36,0000.30,0000.25,-000.33,0000.20,0000.43,0000.41,0000.17,0000.16,16.1,23.0,,00.0,0655.0,30.9
2021-02-09T09:11:00Z,00000200,01000000,0000.69,0000.11,0000.08,0000.13,0000.04,-000.00,-000.16,-000.34,0000.02,16.2,23.1,,00.0,0654.9,31.0
2021-02-09T09:12:00Z,00000200,01000000,0000.82,0000.42,0000.40,-000.12,-000.12,0000.07,0000.24,0000.41,0000.26,16.2,23.1,,00.0,0654.9,30.9
2021-02-09T09:13:00Z,00000200,01000000,0000.22,0000.22,0000.29,0000.46,0000.07,0000.21,0000.07,0000.30,-000.08,16.2,23.1,,00.0,0654.9,30.9
2021-02-09T09:14:00Z,00000200,01000000,0000.38,0000.35,0000.33,-000.10,0000.03,0000.11,0000.19,-000.08,-000.03,16.1,23.1,,00.0,0654.9,30.9
2021-02-09T09:15:00Z,00000200,01000000,0000.10,0000.29,0000.22,0000.10,0000.05,0000.09,0000.35,0000.26,0000.06,16.0,23.1,,00.0,0654.9,30.9
2021-02-09T09:16:00Z,00000200,01000000,0000.19,0000.28,0000.15,0000.40,-000.02,0000.15,0000.19,0000.10,0000.22,16.0,23.0,,00.0,0655.0,30.9
2021-02-09T09:17:00Z,00000200,01000000,0000.96,0000.47,0000.41,0000.16,-000.03,0000.21,-000.13,0000.10,-000.20,15.9,23.0,,00.0,0654.9,30.9
2021-02-09T09:18:00Z,00000200,01000000,0000.78,0000.27,0000.14,-000.13,0000.10,-000.15,0000.20,0000.15,0000.11,15.9,23.0,,00.0,0654.9,30.9
2021-02-09T09:19:00Z,00000200,01000000,0000.34,0000.31,0000.23,0000.66,0000.19,0000.16,0000.77,0000.28,0000.40,15.8,22.9,,00.0,0654.8,30.9
2021-02-09T09:20:00Z,00000200,01000000,0000.22,0000.43,0000.14,-000.12,-000.07,0000.31,0000.78,0000.51,0000.59,15.8,22.9,,00.0,0654.8,30.9
2021-02-09T09:21:00Z,00000200,01000000,0001.32,0000.73,0000.27,-000.10,0000.02,0000.18,0000.84,0000.59,0000.35,15.8,22.9,,00.0,0654.7,30.9
2021-02-09T09:22:00Z,00000200,01000000,0000.48,0000.50,0000.67,0000.40,0000.18,-000.01,0000.58,0000.98,0000.81,15.9,22.9,,00.0,0654.6,30.9
2021-02-09T09:23:00Z,00000200,01000000,-000.42,0000.26,0000.33,-000.13,-000.01,0000.26,0000.40,0000.37,0000.79,15.9,22.9,,00.0,0654.6,30.9
2021-02-09T09:24:00Z,00000200,01000000,0000.47,0000.40,0000.13,-000.01,-000.14,-000.03,0000.46,0000.58,-000.00,16.0,22.9,,00.0,0654.7,30.9
2021-02-09T09:25:00Z,00000200,01000000,0000.53,0000.17,0000.48,0000.18,0000.34,0000.11,0000.51,0000.45,0000.37,16.0,23.0,,00.0,0654.7,30.9
2021-02-09T09:26:00Z,00000200,01000000,0000.00,0000.04,0000.05,0000.50,0000.10,-000.07,0000.09,0000.19,-000.00,16.1,23.0,,00.0,0654.6,30.9
2021-02-09T09:27:00Z,00000200,01000000,0000.47,0000.40,0000.24,-000.09,-000.13,0000.07,-000.14,0000.25,0000.10,16.2,23.0,,00.0,0654.7,31.0
2021-02-09T09:28:00Z,00000200,01000000,0000.61,0000.05,0000.28,0000.33,-000.03,0000.34,0000.74,0000.26,0000.15,16.3,23.1,,00.0,0654.6,31.0
2021-02-09T09:29:00Z,00000200,01000000,0000.70,0000.35,0000.04,0000.08,-000.03,0000.10,0000.08,-000.20,0000.10,16.3,23.1,,00.0,0654.6,31.0
2021-02-09T09:30:00Z,00000200,01000000,0001.15,0000.49,0000.28,0000.18,0000.08,-000.27,0000.10,0000.27,0000.09,16.3,23.1,,00.0,0654.6,31.0
2021-02-09T09:31:00Z,00000200,01000000,-000.30,0000.40,0000.29,0000.11,0000.05,-000.03,0000.15,0000.56,-000.03,16.3,23.1,,00.0,0654.6,31.0
2021-02-09T09:32:00Z,00000200,01000000,-000.25,0000.45,0000.33,0000.15,0000.16,-000.10,0000.30,-000.26,0000.12,16.2,23.1,,00.0,0654.6,30.9
2021-02-09T09:33:00Z,00000200,01000000,0000.08,0000.54,0000.07,0000.14,-000.05,0000.18,0000.34,0000.35,0000.52,16.1,23.0,,00.0,0654.5,30.9
2021-02-09T09:34:00Z,00000200,01000000,0000.96,-000.08,0000.17,-000.41,-000.09,0000.11,0000.54,0000.21,-000.04,16.1,23.0,,00.0,0654.4,30.9
2021-02-09T09:35:00Z,00000200,01000000,0000.40,0000.20,0000.19,-000.16,0000.01,0000.05,0000.49,0000.73,0000.43,16.0,23.0,,00.0,0654.4,30.9
2021-02-09T09:36:00Z,00000200,01000000,0000.00,0000.29,0000.22,0000.27,0000.23,0000.32,0000.62,0000.44,0000.72,16.0,23.0,,00.0,0654.4,30.9
2021-02-09T09:37:00Z,00000200,01000000,-000.01,0000.15,0000.19,0000.21,0000.09,0000.02,0000.65,0000.26,-000.05,16.1,23.0,,00.0,0654.5,30.9
2021-02-09T09:38:00Z,00000200,01000000,0000.66,0000.38,0000.42,0000.40,0000.07,-000.09,-000.04,0000.37,0000.02,16.1,23.0,,00.0,0654.5,30.9
2021-02-09T09:39:00Z,00000200,01000000,0001.04,0000.16,0000.08,-000.22,0000.14,0000.19,0000.47,0000.32,0000.69,16.2,23.0,,00.0,0654.5,30.9
2021-02-09T09:40:00Z,00000200,01000000,0000.55,0000.53,0000.29,0000.00,0000.12,0000.04,0000.44,0000.42,0000.42,16.3,23.1,,00.0,0654.5,31.0
2021-02-09T09:41:00Z,00000200,01000000,-000.04,0000.73,0000.44,0000.16,-000.00,0000.16,-000.04,0000.13,-000.05,16.3,23.1,,00.0,0654.6,31.0
2021-02-09T09:42:00Z,00000200,01000000,0000.18,0000.45,-000.10,0000.08,0000.25,0000.16,0000.30,0000.35,-000.09,16.4,23.2,,00.0,0654.6,31.0
2021-02-09T09:43:00Z,00000200,01000000,0000.63,0000.35,0000.16,0000.17,0000.15,0000.02,0000.09,-000.22,0000.13,16.4,23.2,,00.0,0654.6,30.9
2021-02-09T09:44:00Z,00000200,01000000,0000.73,0000.27,0000.01,-000.12,0000.01,0000.04,-000.34,-000.30,-000.27,16.4,23.2,,00.0,0654.7,30.9
2021-02-09T09:45:00Z,00000200,01000000,0000.26,0000.29,0000.62,0000.46,-000.14,0000.16,-000.30,-000.21,-000.32,16.4,23.2,,00.0,0654.7,31.0
2021-02-09T09:46:00Z,00000200,01000000,-000.12,0000.39,0000.07,-000.48,0000.06,-000.05,-000.55,-000.42,-000.47,16.3,23.1,,00.0,0654.9,31.0
2021-02-09T09:47:00Z,00000200,01000000,0001.28,0000.38,-000.10,0000.48,0000.17,0000.17,-000.21,-000.35,0000.02,16.3,23.1,,00.0,0654.9,30.9
2021-02-09T09:48:00Z,00000200,01000000,0000.22,0000.48,0000.35,-000.36,-000.18,0000.45,-000.13,0000.07,-000.21,16.2,23.1,,00.0,0654.8,30.9
2021-02-09T09:49:00Z,00000200,01000000,0001.10,0000.43,0000.49,-000.08,-000.13,0000.27,0000.68,-000.08,0000.26,16.1,23.1,,00.0,0654.6,30.9
2021-02-09T09:50:00Z,00000200,01000000,0000.72,0000.45,-000.01,0000.23,0000.07,-000.07,0000.57,0001.19,0000.57,16.1,23.0,,00.0,0654.5,30.9
2021-02-09T09:51:00Z,00000200,01000000,0000.31,0000.21,0000.36,-000.05,0000.12,0000.28,0000.56,0000.52,0000.26,16.1,23.0,,00.0,0654.6,30.9
2021-02-09T09:52:00Z,00000200,01000000,0000.22,0000.27,0000.05,-000.01,0000.17,0000.13,0000.07,0000.29,0000.19,16.2,23.0,,00.0,0654.6,30.9
2021-02-09T09:53:00Z,00000200,01000000,-000.18,0000.51,0000.32,0000.17,0000.14,0000.37,0000.22,-000.14,0000.13,16.2,23.1,,00.0,0654.6,30.9
2021-02-09T09:54:00Z,00000200,01000000,0000.21,0000.40,-000.03,-000.13,-000.17,0000.02,0000.63,0000.68,0000.39,16.3,23.1,,00.0,0654.4,30.9
2021-02-09T09:55:00Z,00000200,01000000,0000.19,0000.25,0000.05,0000.63,0000.06,0000.05,0000.50,0000.55,0000.09,16.4,23.1,,00.0,0654.4,31.0
2021-02-09T09:56:00Z,00000200,01000000,0000.86,0000.21,0000.13,-000.13,0000.20,-000.07,0000.26,0000.69,0000.55,16.4,23.2,,00.0,0654.3,31.0
2021-02-09T09:57:00Z,00000200,41000000,,,,,,,0000.83,0000.28,0000.40,16.5,23.2,,00.0,0654.2,31.0
2021-02-09T09:58:00Z,00000200,61000000,,,,,,,0000.15,-000.16,-000.05,16.1,23.3,,00.0,0653.3,31.0
2021-02-09T09:59:00Z,00000200,21000000,,,,,,,-000.04,0000.22,0000.23,16.0,23.4,,00.0,0653.3,31.0
